[[{"header":{"parameterUnit":"m.s-1","parameterCategory":1,"la1":30.2991,"la2":30.254,"lo1":-89.0895,"lo2":-89.0444,"dy":0.0017,"dx":0.0017,"nx":28,"ny":28,"refTime":"2024-11-26T03:00:00:Z","depth":0,"parameterNumber":2,"parameterNumberName":"U-component_of_WINDS"},"data":[0,0,0,0,0,0,0,0,0,0,0,0,0,0,0,0,0,0,0,0,0,0,0,0,0,0,0,0,0,0,0,0,0,0,0,0,0,0,0,0,0,0,0,0,0,0,0,0,0,0,0,0,0,0,0,0,0,0,1.7736,1.7737,0,1.7802,1.7803,1.7804,1.7796,1.7795,1.7794,1.7793,1.7861,1.7864,1.7866,0,0,0,0,0,0,0,0,0,0,0,0,0,1.7603,1.7605,1.7736,1.7737,1.7738,1.7802,1.7803,1.7804,1.7796,1.7795,1.7794,1.7793,1.786,1.7863,1.7867,0,0,0,0,0,0,0,0,0,0,0,0,0,1.7664,1.7606,1.7736,1.7742,1.7743,1.7802,1.7803,1.7804,1.7797,1.7795,1.7793,1.7792,1.7859,1.7863,1.7867,1.7925,0,0,1.788,1.7882,0,0,0,0,0,0,0,0,1.7661,1.7669,1.774,1.7741,1.7743,1.7789,1.7781,1.7845,1.7797,1.7776,1.7793,1.7791,1.7838,1.7844,1.786,1.7928,1.7931,1.788,1.7883,1.7885,1.7886,0,0,0,0,0,0,0,1.7656,1.7666,1.7762,1.7741,1.7743,1.7741,1.7748,1.7793,1.7815,1.7778,1.7778,1.7785,1.7839,1.7856,1.7862,1.7932,1.788,1.7884,1.7886,1.7888,1.805,1.8052,0,0,0,0,0,0,1.7651,1.7663,1.776,1.7764,1.7697,1.7745,1.7752,1.7776,1.7815,1.7819,1.7787,1.7785,1.785,1.7857,1.7864,1.7934,1.7885,1.7889,1.7891,1.8049,1.8051,1.8053,0,0,0,0,0,0,1.7648,1.766,1.7758,1.7713,1.7726,1.7749,1.7775,1.7778,1.7795,1.7822,1.7826,1.78,1.7849,1.7858,1.791,1.7936,1.789,1.7894,1.8047,1.8049,1.8052,1.8075,0,0,0,0,0,0,1.7644,1.7659,1.7681,1.7714,1.7728,1.7802,1.7777,1.7781,1.7803,1.7801,1.7835,1.784,1.7848,1.7904,1.7914,1.7941,1.7897,1.8044,1.8048,1.8051,1.8072,1.8078,1.8083,0,0,0,0,0,1.7639,1.7685,1.7682,1.7694,1.7756,1.7804,1.7812,1.7821,1.7805,1.7827,1.7844,1.7838,1.7932,1.7909,1.7921,1.7949,1.8043,1.8047,1.8051,1.8069,1.8077,1.8083,0,0,0,0,0,0,1.7654,1.7689,1.7686,1.7744,1.7771,1.7802,1.7831,1.7829,1.7861,1.7858,1.7868,1.7876,1.7928,1.7944,1.7918,1.8007,1.7985,1.7992,1.7995,1.8002,1.8008,1.8003,1.7901,0,0,0,0,0,1.7664,1.7699,1.7728,1.7776,1.779,1.7808,1.7829,1.7834,1.7862,1.7874,1.7894,1.7922,1.7958,1.7981,1.8015,1.8074,1.8081,1.81,1.8105,1.811,1.8115,1.8147,1.8156,1.8066,1.8066,1.8066,0,0,1.7684,1.7708,1.773,1.7779,1.7801,1.7837,1.7818,1.7857,1.7885,1.788,1.793,1.7946,1.7978,1.8033,1.8058,1.8048,1.8142,1.8115,1.8118,1.8122,1.8153,1.8161,1.8169,1.8069,1.8068,1.8068,0,0,1.774,1.7762,1.7804,1.7826,1.7859,1.7871,1.7881,1.7913,1.7924,1.7974,1.7971,1.8004,1.8065,1.8088,1.8107,1.8172,1.8168,1.8183,1.8213,1.8244,1.8251,1.8258,1.8281,1.8289,1.8189,1.8189,1.8189,0,1.7762,1.7817,1.7826,1.7866,1.7888,1.7885,1.7928,1.7949,1.7991,1.8006,1.7994,1.8071,1.8092,1.8153,1.8168,1.8185,1.8196,1.8179,1.825,1.8256,1.8262,1.8284,1.8293,1.819,1.819,1.819,1.819,0,1.7841,1.788,1.791,1.7951,1.7976,1.8017,1.8033,1.8057,1.806,1.8073,1.8124,1.815,1.8189,1.8204,1.8207,1.8265,1.8257,1.8247,1.8225,1.8272,1.8293,1.8301,1.8193,1.8192,1.8192,1.8191,0,0,1.7908,1.7954,1.7965,1.7983,1.802,1.8049,1.8091,1.8129,1.815,1.8179,1.8214,1.8266,1.8257,1.8279,1.8284,1.8312,1.8361,1.8298,1.8299,1.8309,1.8427,1.8434,1.8444,1.8359,1.8361,1.8362,1.8424,0,1.7967,1.804,1.805,1.8114,1.8149,1.8148,1.8183,1.821,1.8223,1.8255,1.827,1.8307,1.8292,1.8306,1.8333,1.835,1.8385,1.8345,1.8391,1.8393,1.8383,1.8454,1.8462,1.8519,1.8432,1.8434,1.8435,0,1.8046,1.8078,1.8146,1.8178,1.8193,1.8225,1.8261,1.8292,1.8321,1.8329,1.8354,1.8356,1.8399,1.8375,1.8433,1.8406,1.8425,1.8437,1.8439,1.8443,1.8416,1.846,1.8538,1.8546,1.8448,1.8447,1.8446,0,1.8087,1.8147,1.8196,1.8212,1.825,1.8273,1.8289,1.8318,1.834,1.8372,1.8386,1.8422,1.8442,1.847,1.8482,1.8463,1.854,1.8517,1.8547,1.8547,1.8563,1.8562,1.8644,1.8576,1.8576,1.8576,1.8576,0,1.8153,1.8194,1.8215,1.8245,1.8291,1.8302,1.8348,1.8364,1.8389,1.8421,1.8422,1.8453,1.8467,1.85,1.8509,1.8556,1.8565,1.8572,1.8574,1.8572,1.8571,1.8585,1.8581,1.8578,1.8578,1.8577,1.8577,0,1.8206,1.8222,1.8274,1.8306,1.8315,1.8348,1.8376,1.8404,1.8418,1.8459,1.847,1.8491,1.853,1.8544,1.8591,1.8598,1.8652,1.8651,1.8642,1.8642,1.8672,1.8668,1.8766,1.8779,1.8702,1.8703,1.8703,0,1.8246,1.8278,1.8314,1.8336,1.8354,1.8389,1.8412,1.8424,1.8448,1.8485,1.8509,1.8548,1.8579,1.8641,1.8661,1.8697,1.8696,1.8728,1.8702,1.8698,1.8696,1.8694,1.8697,1.8732,1.8733,1.8734,1.8734,0,1.8316,1.8322,1.8356,1.8392,1.8419,1.8449,1.8477,1.8495,1.8511,1.8538,1.8578,1.8602,1.865,1.8689,1.8726,1.8743,1.8741,1.8743,1.8751,1.8749,1.8743,1.8746,1.8655,1.874,1.874,1.8739,1.8739,1.8739,1.8364,1.8392,1.8422,1.8459,1.8482,1.8508,1.8537,1.8554,1.8587,1.8628,1.8633,1.8675,1.8704,1.8754,1.8773,1.8806,1.8798,1.8811,1.8814,1.8817,1.8819,1.8738,1.8813,1.8813,1.8813,1.8813,1.8813,0,1.8433,1.8452,1.8486,1.8526,1.8555,1.8552,1.8583,1.8607,1.8645,1.8672,1.8703,1.8749,1.8786,1.8809,1.8846,1.8869,1.8869,1.8878,1.8876,1.888,1.8824,1.8813,1.8877,1.8877,1.8877,1.8877,1.8877,1.8877,1.8472,1.852,1.853,1.8589,1.8608,1.865,1.8668,1.8692,1.8714,1.8765,1.8796,1.8811,1.8836,1.8875,1.8909,1.8915,1.8929,1.8938,1.8943,1.8891,1.8884,1.8878,1.8867,1.8941,1.8941,1.8996,1.8997,1.8997]},{"header":{"parameterUnit":"m.s-1","parameterCategory":1,"la1":30.2991,"la2":30.254,"lo1":-89.0895,"lo2":-89.0444,"dy":0.0017,"dx":0.0017,"nx":28,"ny":28,"refTime":"2024-11-26T03:00:00:Z","depth":0,"parameterNumber":3,"parameterNumberName":"V-component_of_WINDS"},"data":[0,0,0,0,0,0,0,0,0,0,0,0,0,0,0,0,0,0,0,0,0,0,0,0,0,0,0,0,0,0,0,0,0,0,0,0,0,0,0,0,0,0,0,0,0,0,0,0,0,0,0,0,0,0,0,0,0,0,3.4396,3.4396,0,3.4463,3.4464,3.4464,3.4438,3.4436,3.4435,3.4433,3.4499,3.4502,3.4505,0,0,0,0,0,0,0,0,0,0,0,0,0,3.424,3.4243,3.4395,3.4396,3.4397,3.4463,3.4464,3.4465,3.4438,3.4436,3.4434,3.4433,3.4498,3.4502,3.4506,0,0,0,0,0,0,0,0,0,0,0,0,0,3.4308,3.4244,3.4395,3.4392,3.4392,3.4463,3.4464,3.4465,3.4439,3.4436,3.4434,3.4432,3.4497,3.4501,3.4506,3.4583,0,0,3.4521,3.4523,0,0,0,0,0,0,0,0,3.4304,3.4313,3.4392,3.4392,3.4393,3.444,3.4433,3.4504,3.4439,3.4421,3.4433,3.4431,3.4481,3.4487,3.4505,3.4586,3.4589,3.4521,3.4524,3.4526,3.4528,0,0,0,0,0,0,0,3.4299,3.431,3.4422,3.4393,3.4394,3.4386,3.4393,3.4446,3.4463,3.4422,3.4421,3.4429,3.4481,3.45,3.4506,3.4589,3.4521,3.4525,3.4528,3.453,3.4736,3.4739,0,0,0,0,0,0,3.4295,3.4307,3.442,3.4424,3.4342,3.4391,3.4398,3.4427,3.4463,3.4466,3.4431,3.4428,3.4493,3.45,3.4508,3.46,3.4526,3.4531,3.4533,3.4734,3.4737,3.474,0,0,0,0,0,0,3.4292,3.4305,3.4417,3.4365,3.4379,3.4396,3.4428,3.443,3.4449,3.4469,3.4472,3.4448,3.4491,3.4501,3.4565,3.4602,3.4533,3.4537,3.4731,3.4735,3.4738,3.4785,0,0,0,0,0,0,3.4287,3.4304,3.4334,3.4366,3.4382,3.4474,3.443,3.4433,3.4458,3.4454,3.4486,3.4489,3.449,3.4557,3.4569,3.4608,3.4541,3.4727,3.4732,3.4737,3.478,3.479,3.4798,0,0,0,0,0,3.4282,3.4344,3.4336,3.435,3.442,3.4476,3.4485,3.4487,3.4461,3.4491,3.4504,3.4488,3.4596,3.4564,3.4577,3.4617,3.4725,3.4731,3.4737,3.4776,3.4788,3.4798,0,0,0,0,0,0,3.4316,3.4348,3.434,3.4414,3.4443,3.4471,3.4509,3.4499,3.4535,3.4529,3.4529,3.4536,3.4602,3.4615,3.458,3.4693,3.4656,3.4665,3.4682,3.4693,3.4702,3.4698,3.4545,0,0,0,0,0,3.4332,3.4376,3.4402,3.4465,3.448,3.4492,3.4517,3.4515,3.4544,3.4556,3.4574,3.4601,3.4641,3.4668,3.4706,3.4782,3.4788,3.4816,3.4825,3.4832,3.484,3.4881,3.4893,3.4759,3.4759,3.4759,0,0,3.4366,3.4389,3.4417,3.4472,3.4494,3.4539,3.4502,3.4551,3.4584,3.4563,3.4624,3.4638,3.4669,3.4738,3.477,3.4752,3.4878,3.4839,3.4845,3.4849,3.4888,3.4901,3.4912,3.4763,3.4762,3.4761,0,0,3.445,3.4473,3.4528,3.4551,3.4585,3.4592,3.4606,3.4636,3.4645,3.4706,3.4692,3.473,3.4799,3.4822,3.4842,3.4935,3.4922,3.4947,3.4995,3.5035,3.5046,3.5055,3.5088,3.51,3.4955,3.4955,3.4955,0,3.4488,3.4556,3.4557,3.4608,3.4632,3.4616,3.4672,3.4693,3.4737,3.4754,3.4734,3.4821,3.484,3.4915,3.4938,3.4955,3.4969,3.4944,3.5044,3.5054,3.5062,3.5094,3.5107,3.4958,3.4957,3.4957,3.4957,0,3.46,3.4648,3.4688,3.4733,3.4761,3.4814,3.4822,3.4851,3.4847,3.4857,3.4919,3.4942,3.4984,3.5002,3.4998,3.5076,3.5064,3.5044,3.5007,3.5078,3.5108,3.512,3.4962,3.4961,3.496,3.4959,0,0,3.4709,3.4754,3.4768,3.4789,3.4825,3.4861,3.4912,3.4954,3.4979,3.501,3.5052,3.5111,3.5093,3.5116,3.5115,3.515,3.5222,3.5125,3.5126,3.5143,3.5309,3.5325,3.5339,3.5213,3.5215,3.5217,3.5307,0,3.4797,3.4889,3.4891,3.4974,3.5018,3.5003,3.5047,3.5074,3.5084,3.5121,3.5131,3.5174,3.5146,3.516,3.5194,3.5206,3.5255,3.5199,3.5252,3.5254,3.5246,3.5355,3.5371,3.5455,3.5318,3.532,3.5322,0,3.4912,3.4948,3.5036,3.5066,3.5084,3.5125,3.5164,3.52,3.5229,3.5233,3.526,3.5253,3.5304,3.5265,3.5335,3.5297,3.5318,3.5327,3.5331,3.5336,3.5293,3.5364,3.5482,3.5495,3.534,3.5339,3.5337,0,3.4983,3.5053,3.5115,3.5132,3.5169,3.5197,3.5213,3.524,3.5266,3.5299,3.5316,3.5354,3.5376,3.5405,3.5408,3.538,3.5479,3.544,3.5484,3.5484,3.5506,3.5505,3.563,3.5519,3.5519,3.5518,3.5518,0,3.5081,3.5136,3.5147,3.5186,3.5246,3.5247,3.5307,3.532,3.5344,3.5384,3.5372,3.541,3.5412,3.5449,3.5452,3.551,3.5519,3.5524,3.5524,3.5525,3.5525,3.554,3.5534,3.5522,3.5521,3.552,3.552,0,3.5171,3.5181,3.5248,3.5277,3.5285,3.5329,3.5353,3.5389,3.5397,3.5448,3.546,3.5473,3.5517,3.5523,3.5574,3.5575,3.5645,3.5639,3.5636,3.5635,3.5679,3.5675,3.5819,3.5838,3.5713,3.5715,3.5716,0,3.5234,3.5276,3.531,3.5336,3.5354,3.5397,3.5423,3.5425,3.5453,3.5489,3.5521,3.5563,3.5598,3.5669,3.5682,3.5721,3.5716,3.5763,3.5721,3.5721,3.5717,3.5715,3.5719,3.5772,3.5773,3.5774,3.5775,0,3.5344,3.5347,3.5386,3.5427,3.5459,3.5491,3.5521,3.5542,3.5549,3.558,3.5625,3.5652,3.5705,3.5747,3.5786,3.5801,3.5789,3.5788,3.58,3.5803,3.58,3.5802,3.5659,3.5785,3.5784,3.5783,3.5783,3.5782,3.5423,3.5459,3.5489,3.5533,3.5556,3.5584,3.562,3.5633,3.5672,3.5715,3.5714,3.5764,3.5791,3.5841,3.5859,3.5897,3.5882,3.5899,3.5904,3.5908,3.5913,3.5793,3.5904,3.5904,3.5903,3.5903,3.5903,0,3.5533,3.5551,3.5591,3.5634,3.5669,3.5655,3.5688,3.5717,3.5762,3.5789,3.5823,3.5875,3.5916,3.5933,3.5973,3.6,3.5996,3.6011,3.6009,3.6013,3.5925,3.591,3.6014,3.6014,3.6014,3.6014,3.6014,3.6014,3.5594,3.5656,3.5662,3.5734,3.5752,3.5802,3.5822,3.5847,3.5869,3.5928,3.5963,3.5974,3.5996,3.6038,3.6075,3.6078,3.6094,3.6111,3.6113,3.603,3.6019,3.6008,3.5995,3.6114,3.6114,3.6198,3.6198,3.6199]}]]